TimeEST,TemperatureF,Dew PointF,Humidity,Sea Level PressureIn,VisibilityMPH,Wind Direction,Wind SpeedMPH,Gust SpeedMPH,PrecipitationIn,Events,Conditions,WindDirDegrees,DateUTC
12:53 AM,36.0,21.9,57,29.98,10.0,SSW,16.1,-,N/A,,Clear,210,2013-01-19 05:53:00
1:53 AM,36.0,23.0,59,29.96,10.0,SW,16.1,-,N/A,,Clear,220,2013-01-19 06:53:00
2:53 AM,37.0,23.0,57,29.96,10.0,SSW,18.4,-,N/A,,Clear,210,2013-01-19 07:53:00
3:53 AM,37.0,23.0,57,29.96,10.0,SW,17.3,-,N/A,,Clear,220,2013-01-19 08:53:00
4:53 AM,37.0,24.1,59,29.95,10.0,SSW,17.3,-,N/A,,Clear,210,2013-01-19 09:53:00
5:53 AM,37.0,24.1,59,29.95,10.0,SW,15.0,-,N/A,,Clear,220,2013-01-19 10:53:00
6:53 AM,37.0,24.1,59,29.95,10.0,SW,17.3,-,N/A,,Clear,220,2013-01-19 11:53:00
7:53 AM,36.0,25.0,64,29.96,10.0,SW,15.0,-,N/A,,Clear,220,2013-01-19 12:53:00
8:53 AM,39.0,25.0,57,29.96,10.0,SSW,15.0,-,N/A,,Clear,210,2013-01-19 13:53:00
9:53 AM,41.0,26.1,55,29.96,10.0,SW,18.4,-,N/A,,Clear,220,2013-01-19 14:53:00
10:53 AM,45.0,27.0,49,29.95,10.0,SW,21.9,29.9,N/A,,Clear,220,2013-01-19 15:53:00
11:53 AM,46.9,28.0,48,29.91,10.0,SW,20.7,26.5,N/A,,Clear,220,2013-01-19 16:53:00
12:53 PM,48.9,28.0,44,29.85,10.0,SW,17.3,31.1,N/A,,Clear,220,2013-01-19 17:53:00
1:53 PM,48.0,28.0,46,29.81,10.0,SSW,20.7,27.6,N/A,,Clear,200,2013-01-19 18:53:00
2:53 PM,50.0,28.9,44,29.79,10.0,SSW,23.0,32.2,N/A,,Clear,210,2013-01-19 19:53:00
3:53 PM,48.9,30.0,48,29.76,10.0,SW,23.0,34.5,N/A,,Clear,220,2013-01-19 20:53:00
4:53 PM,48.9,30.9,50,29.75,10.0,SW,19.6,27.6,N/A,,Clear,220,2013-01-19 21:53:00
5:53 PM,48.0,30.9,52,29.75,10.0,SW,16.1,25.3,N/A,,Mostly Cloudy,220,2013-01-19 22:53:00
6:53 PM,46.9,30.9,54,29.71,10.0,SSW,21.9,32.2,N/A,,Mostly Cloudy,210,2013-01-19 23:53:00
7:53 PM,46.0,30.9,56,29.70,10.0,SSW,21.9,28.8,N/A,,Partly Cloudy,210,2013-01-20 00:53:00
8:53 PM,45.0,32.0,60,29.67,10.0,SW,18.4,26.5,N/A,,Clear,220,2013-01-20 01:53:00
9:53 PM,44.1,32.0,63,29.64,10.0,SW,17.3,26.5,N/A,,Clear,220,2013-01-20 02:53:00
10:53 PM,44.1,32.0,63,29.62,10.0,SW,16.1,20.7,N/A,,Scattered Clouds,230,2013-01-20 03:53:00
11:53 PM,46.0,33.1,61,29.59,10.0,WSW,24.2,32.2,N/A,,Clear,240,2013-01-20 04:53:00